Regional Weather Roundup
Issued by NWS

Home | Current Version | Previous Version | Graphics & Text | Print | Product List | Glossary Off
Versions: 1 2 3 4 5 6 7 8 9 10 11 12 13 14 15 16 17 18 19 20 21 22 23 24 25 26 27 28 29 30 31 32 33 34 35 36 37 38 39 40 41 42 43 44 45 46 47 48 49 50

000
ASUS43 KDMX 221006
RWRIA

WEATHER ROUNDUP FOR IOWA
NATIONAL WEATHER SERVICE DES MOINES IA
400 AM CST THU FEB 22 2018

NOTE: "FAIR" INDICATES FEW OR NO CLOUDS BELOW 12,000 FEET WITH NO
SIGNIFICANT WEATHER AND/OR OBSTRUCTIONS TO VISIBILITY.

* - THESE STATIONS ARE NOT NWS STATIONS...THUS NOT UNDER NWS
QUALITY CONTROL.  THEY ALSO DO NOT REPORT WEATHER SUCH
AS PRECIPITATION OR FOG.

IAZ001>003-012>014-020>022-031>034-043>046-221100-
   NORTHWEST IOWA

CITY           SKY/WX    TMP DP  RH WIND       PRES   REMARKS
CARROLL *      CLOUDY    23  19  86 NE7       30.47F WCI  15
CHEROKEE *     LGT SNOW  20  19  95 E5        30.47F WCI  13
DENISON *      CLOUDY    21  19  93 E6        30.49F WCI  14
LE MARS *      LGT SNOW  19  16  86 SE7       30.48S WCI  10
ORANGE CITY *  CLOUDY    18  18 100 E3        30.46F
SHELDON *      CLOUDY    16  14  93 E7        30.46F WCI   6
SIOUX CITY     LGT SNOW  19  17  92 E6        30.48F FOG     WCI  11
SPENCER        LGT SNOW  17  13  84 N5        30.49  FOG     WCI  10
STORM LAKE *   LGT SNOW  19  18  93 E9        30.46F WCI   9
$$

IAZ055>058-069>071-079>083-090>094-221100-
   SOUTHWEST IOWA

CITY           SKY/WX    TMP DP  RH WIND       PRES   REMARKS
ATLANTIC *     MIX PCPN  23  18  80 NE7       30.46S WCI  15
AUDUBON *      CLOUDY    23  18  80 CALM      30.46F
CLARINDA *     LGT SNOW  25  23  93 NE9       30.47F WCI  15
COUNCIL BLFS * LGT SNOW  23  23 100 NE7       30.45F WCI  15
CRESTON *      CLOUDY    23  18  80 E10       30.44S WCI  12
HARLAN  *      CLOUDY    23  19  86 E7        30.50F WCI  15
LAMONI         CLOUDY    24  20  84 NE10      30.42F WCI  14
RED OAK *      LGT SNOW  25  19  80 NE8       30.47S WCI  16
SHENANDOAH *   LGT SNOW  25  23  93 NE10      30.46S WCI  15
$$

IAZ047>049-059>061-072>074-084-221100-
   CENTRAL IOWA

CITY           SKY/WX    TMP DP  RH WIND       PRES   REMARKS
AMES           CLOUDY    24  16  71 NE8       30.50  WCI  15
ANKENY *       MOCLDY    25  18  74 NE7       30.50F WCI  17
BOONE *        CLOUDY    23  18  80 NE10      30.48F WCI  12
CHARITON *     CLOUDY    25  21  86 NE12      30.45F WCI  14
DES MOINES     FLURRIES  25  17  72 NE8       30.48  WCI  16
GRINNELL*      CLOUDY    25  19  77 NE9       30.50F WCI  15
KNOXVILLE *    CLOUDY    25  18  74 NE9       30.47F WCI  15
MARSHALLTOWN   CLOUDY    24  17  74 E10       30.51  WCI  14
NEWTON *       CLOUDY    25  18  74 NE6       30.51F WCI  18
PELLA *        FAIR      26  19  76 NE5       30.51F WCI  20
PERRY *        CLOUDY    24  18  79 E8        30.49F WCI  15
$$

IAZ004>006-015-016-023>025-035-036-221100-
   NORTH CENTRAL IOWA

CITY           SKY/WX    TMP DP  RH WIND       PRES   REMARKS
ALGONA *       LGT SNOW  21 N/A N/A SE5       30.50F WCI  15
CLARION *      FOG       21  21 100 E14       30.50F VSB 1/2 WCI   8
ESTHERVILLE    CLOUDY    16  12  84 N3        30.51
FORT DODGE *   LGT SNOW  19  18  93 MISG      30.49F FOG
MASON CITY     LGT SNOW  20  17  88 SE10      30.54F FOG     WCI   9
FOREST CITY *  LGT SNOW  23  21  93 SE6       30.53S WCI  16
WEBSTER CITY * LGT SNOW  23  19  86 E12       30.48F WCI  12
IOWA FALLS *   CLOUDY    24  19  80 NE9       30.52F WCI  14
$$

IAZ007>011-017>019-026>030-037>042-050>054-066-221100-
   NORTHEAST IOWA

CITY           SKY/WX    TMP DP  RH WIND       PRES   REMARKS
CEDAR RAPIDS   CLOUDY    26  15  63 E13       30.49  WCI  15
CHARLES CITY * LGT SNOW  21  21 100 E6        30.56R WCI  14
CLINTON *      FAIR      26  19  74 NE14      30.52  WCI  14
DECORAH *      CLOUDY    21  16  79 E8        30.54F WCI  12
DUBUQUE        CLOUDY    23  13  65 NE8       30.53  WCI  14
MONTICELLO *   CLOUDY    25  16  68 E12       30.52F WCI  14
OELWEIN *      MOCLDY    23  19  86 NE9       30.54F WCI  13
WATERLOO       CLOUDY    23  16  74 NE7       30.55  WCI  15
$$

IAZ064-065-067-068-078-221100-
   EAST CENTRAL IOWA

CITY           SKY/WX    TMP DP  RH WIND       PRES   REMARKS
DAVENPORT      CLOUDY    27  18  69 NE14      30.52  WCI  16
IOWA CITY      CLOUDY    28  16  60 NE8       30.52  WCI  20
MT. PLEASANT * CLOUDY    28  21  74 NE9       30.49R WCI  20
MUSCATINE *    CLOUDY    28  19  69 NE10G17   30.51S WCI  19
QUAD CITIES    CLOUDY    28  19  69 NE10      30.50  WCI  19
$$

IAZ062-063-075>077-085>089-095>099-221100-
   SOUTHEAST IOWA

CITY           SKY/WX    TMP DP  RH WIND       PRES   REMARKS
BURLINGTON     CLOUDY    28  21  75 NE10      30.47  WCI  19
FAIRFIELD *    CLOUDY    28  18  64 NE10      30.48S WCI  19
FORT MADISON * CLOUDY    28  23  80 NE8       30.48R WCI  20
KEOKUK *       CLOUDY    28  23  80 NE7G13    30.46R WCI  21
OSKALOOSA *    CLOUDY    26  19  77 NE8       30.50S WCI  17
OTTUMWA        CLOUDY    27  18  69 NE9       30.49  WCI  18
WASHINGTON *   CLOUDY    27  23  86 NE12      30.50S WCI  16
$$

ABBREVIATIONS USED IN REMARKS
   TC - TEMPERATURES IN CELSIUS
  WCI - WIND CHILL INDEX
   HX - HEAT INDEX
  VSB - VISIBILITY
$$





USA.gov is the U.S. government's official web portal to all federal, state and local government web resources and services.